Weather History for KPHD - December, 2013

Change the Weather History Date:

Monday, December 9, 2013

  Actual Average Record
Temperature  
Mean Temperature 33 °F 34 °F  
Max Temperature 37 °F 43 °F 67 °F (1966)
Min Temperature 28 °F 26 °F 4 °F (1960)
Degree Days  
Heating Degree Days 32 31  
Month to date heating degree days 266 263  
Since 1 July heating degree days 1502 1421  
Cooling Degree Days 0 0  
Month to date cooling degree days 0 0  
Year to date cooling degree days 755 697  
Moisture  
Dew Point 28 °F    
Average Humidity 80    
Maximum Humidity 96    
Minimum Humidity 63    
Precipitation  
Precipitation 0.25 in 0.10 in - ()
Month to date precipitation 0.75 0.87  
Year to date precipitation 31.99 37.10  
Sea Level Pressure  
Sea Level Pressure 30.06 in    
Wind  
Wind Speed 7 mph (SW)    
Max Wind Speed 17 mph    
Max Gust Speed 24 mph    
Visibility 7 miles    
Events Rain    
T = Trace of Precipitation, MM = Missing Value Source: NWS Daily Summary

Daily Weather History Graph

Daily Weather History Graph

Search for Another Location

Airport or City:

Trip Planner

Search our weather history database for the weather conditions in past years. The results will help you decide how hot, cold, wet, or windy it might be!

Date:

Astronomy

Dec. 09, 2013 Rise Set
Actual Time 7:37 AM EST 4:58 PM EST
Civil Twilight 7:06 AM EST 5:29 PM EST
Nautical Twilight 6:32 AM EST 6:03 PM EST
Astronomical Twilight 5:59 AM EST 6:36 PM EST
Moon 12:28 PM EST (12/9) No Moon Set
Length of Visible Light 10h 22m
Length of Day
9h 21m
Waxing Crescent, 51% of the Moon is Illuminated
Dec 9
Waxing Crescent
Dec 17
Full
Dec 25
Last Quarter
Jan 1
New
Jan 7
First Quarter

Hourly Weather History & Observations

Time (EST) Temp. Windchill Dew Point Humidity Pressure Visibility Wind Dir Wind Speed Gust Speed Precip Events Conditions
12:53 AM 32.0 °F 28.7 °F 30.0 °F 92% 30.03 in 2.5 mi SE 3.5 mph - N/A   Overcast
1:04 AM 32.0 °F 28.7 °F 30.2 °F 93% 29.99 in 2.0 mi ESE 3.5 mph - 0.00 in Rain Light Freezing Rain
1:27 AM 32.0 °F 28.7 °F 30.2 °F 93% 29.98 in 2.5 mi SSE 3.5 mph - 0.00 in   Overcast
1:53 AM 33.1 °F 28.7 °F 30.9 °F 92% 29.99 in 2.5 mi SE 4.6 mph - 0.00 in   Overcast
2:16 AM 33.8 °F 29.6 °F 30.2 °F 87% 29.97 in 1.8 mi SSE 4.6 mph - N/A   Overcast
2:24 AM 33.8 °F 29.6 °F 30.2 °F 87% 29.96 in 2.0 mi SE 4.6 mph - N/A   Overcast
2:32 AM 33.8 °F 29.6 °F 30.2 °F 87% 29.96 in 1.8 mi SE 4.6 mph - N/A   Overcast
2:45 AM 33.8 °F - 32.0 °F 93% 29.96 in 2.0 mi Calm Calm - N/A   Overcast
2:53 AM 33.1 °F 30.0 °F 32.0 °F 96% 29.99 in 2.0 mi SSE 3.5 mph - N/A   Overcast
3:08 AM 33.8 °F 30.8 °F 30.2 °F 87% 29.95 in 1.8 mi SSE 3.5 mph - 0.00 in   Overcast
3:19 AM 33.8 °F 30.8 °F 33.8 °F 100% 29.96 in 2.0 mi SSE 3.5 mph - 0.00 in   Overcast
3:27 AM 33.8 °F 30.8 °F 32.0 °F 93% 29.96 in 2.0 mi SSE 3.5 mph - 0.00 in   Overcast
3:45 AM 35.6 °F 30.7 °F 33.8 °F 93% 29.95 in 3.0 mi South 5.8 mph - 0.00 in   Overcast
3:53 AM 36.0 °F 32.1 °F 34.0 °F 93% 29.98 in 6.0 mi SSW 4.6 mph - 0.00 in   Overcast
4:53 AM 37.0 °F 32.4 °F 34.0 °F 89% 29.98 in 6.0 mi SW 5.8 mph - 0.02 in   Overcast
5:53 AM 36.0 °F 30.3 °F 34.0 °F 93% 29.99 in 8.0 mi SW 6.9 mph - 0.09 in   Overcast
6:02 AM 35.6 °F 30.7 °F 33.8 °F 93% 29.97 in 5.0 mi WSW 5.8 mph - N/A   Overcast
6:53 AM 36.0 °F 29.6 °F 33.1 °F 89% 30.02 in 10.0 mi SW 8.1 mph 16.1 mph 0.02 in   Overcast
7:53 AM 36.0 °F 31.1 °F 32.0 °F 86% 30.03 in 10.0 mi SW 5.8 mph - 0.02 in   Overcast
8:53 AM 35.1 °F 30.1 °F 30.9 °F 85% 30.06 in 8.0 mi Variable 5.8 mph - 0.02 in Rain Light Rain
9:03 AM 35.6 °F 27.5 °F 30.2 °F 81% 30.04 in 9.0 mi WSW 11.5 mph 19.6 mph 0.00 in Rain Light Rain
9:34 AM 35.6 °F 29.9 °F 30.2 °F 81% 30.04 in 10.0 mi SW 6.9 mph - 0.01 in   Overcast
9:51 AM 35.6 °F 30.7 °F 30.2 °F 81% 30.05 in 10.0 mi WSW 5.8 mph - 0.02 in   Overcast
9:53 AM 35.1 °F 28.6 °F 30.0 °F 82% 30.08 in 10.0 mi SW 8.1 mph - 0.02 in   Overcast
10:14 AM 35.6 °F 29.2 °F 30.2 °F 81% 30.06 in 10.0 mi WSW 8.1 mph - N/A   Overcast
10:46 AM 35.6 °F 28.6 °F 28.4 °F 75% 30.07 in 10.0 mi WSW 9.2 mph - 0.01 in   Overcast
10:53 AM 35.1 °F 27.9 °F 28.9 °F 78% 30.10 in 10.0 mi WSW 9.2 mph 16.1 mph 0.01 in   Overcast
11:02 AM 35.6 °F 28.0 °F 28.4 °F 75% 30.08 in 10.0 mi WSW 10.4 mph - N/A   Overcast
11:53 AM 35.1 °F 26.9 °F 27.0 °F 72% 30.11 in 10.0 mi West 11.5 mph 17.3 mph 0.02 in   Overcast
12:53 PM 34.0 °F 25.0 °F 26.1 °F 73% 30.11 in 10.0 mi WSW 12.7 mph 18.4 mph 0.01 in   Overcast
1:53 PM 33.1 °F 26.1 °F 25.0 °F 72% 30.09 in 10.0 mi West 8.1 mph - 0.01 in   Overcast
2:53 PM 33.1 °F 26.9 °F 25.0 °F 72% 30.11 in 10.0 mi West 6.9 mph - 0.01 in   Overcast
3:53 PM 32.0 °F 25.6 °F 25.0 °F 75% 30.13 in 10.0 mi WSW 6.9 mph - N/A   Overcast
4:53 PM 32.0 °F 24.2 °F 21.9 °F 66% 30.16 in 10.0 mi WSW 9.2 mph 16.1 mph N/A   Overcast
5:23 PM 30.2 °F 21.9 °F 21.2 °F 69% 30.14 in 10.0 mi West 9.2 mph 18.4 mph N/A   Overcast
5:30 PM 30.2 °F 22.6 °F 21.2 °F 69% 30.14 in 10.0 mi West 8.1 mph - N/A   Overcast
5:53 PM 30.9 °F 23.5 °F 21.0 °F 67% 30.17 in 10.0 mi WSW 8.1 mph - N/A   Overcast
6:53 PM 30.9 °F 22.2 °F 21.0 °F 67% 30.18 in 10.0 mi SW 10.4 mph - N/A   Overcast
7:53 PM 30.0 °F 21.7 °F 21.0 °F 69% 30.19 in 10.0 mi SW 9.2 mph - N/A   Overcast
8:53 PM 30.0 °F 24.1 °F 21.0 °F 69% 30.19 in 10.0 mi WSW 5.8 mph - N/A   Overcast
9:53 PM 30.0 °F 22.4 °F 19.9 °F 66% 30.17 in 10.0 mi WSW 8.1 mph - N/A   Overcast
10:53 PM 28.9 °F 21.9 °F 19.0 °F 67% 30.15 in 10.0 mi WSW 6.9 mph - N/A   Scattered Clouds
11:53 PM 28.0 °F 20.8 °F 19.9 °F 72% 30.16 in 10.0 mi WSW 6.9 mph - N/A   Scattered Clouds